Location: Unspecified
(0.0000°N, 0.0000°E)
Time: 00:21:50
(UTC+00:00)

Tiros 8 - Pass Details

Date: 16 May 2026
Orbit: 640 x 662 km, 58.5° (Epoch: 10 June)

Event Time Altitude Azimuth Distance (km) Brightness Sun altitude
Rises 19:22:02 0° 236° (SW) 2,978 12.6 -20.2°
Reaches altitude 10° 19:24:56 10° 254° (WSW) 2,067 12.0 -20.8°
Maximum altitude 19:28:15 19° 299° (WNW) 1,551 11.5 -21.6°
Drops below altitude 10° 19:31:36 10° 344° (NNW) 2,066 11.7 -22.4°
Sets 19:34:31 0° 2° (N) 2,975 12.3 -23.1°
